Change the Weather History Date:

Friday, April 26, 2013

  Actual Average Record
Temperature  
Mean Temperature 56 °F -  
Max Temperature 63 °F 71 °F 95 °F (1989)
Min Temperature 51 °F 46 °F 24 °F (1950)
Degree Days  
Heating Degree Days 8    
Growing Degree Days 6 (Base 50)    
Moisture  
Dew Point 45 °F    
Average Humidity 65    
Maximum Humidity 83    
Minimum Humidity 51    
Precipitation  
Precipitation 0.00 in - - ()
Sea Level Pressure  
Sea Level Pressure 30.15 in    
Wind  
Wind Speed 12 mph (South)    
Max Wind Speed 22 mph    
Max Gust Speed 34 mph    
Visibility 10 miles    
Events      
Averages and records for this station are not official NWS values.
T = Trace of Precipitation, MM = Missing Value Source: NWS Daily Summary

Daily Weather History Graph

Daily Weather History Graph

Search for Another Location

Airport or City:

Trip Planner

Search our weather history database for the weather conditions in past years. The results will help you decide how hot, cold, wet, or windy it might be!

Date:

Astronomy

Apr. 26, 2013 Rise Set
Actual Time 6:28 AM CDT 8:12 PM CDT
Civil Twilight 5:59 AM CDT 8:41 PM CDT
Nautical Twilight 5:24 AM CDT 9:16 PM CDT
Astronomical Twilight 4:47 AM CDT 9:54 PM CDT
Moon 9:36 PM CDT (4/26) 6:56 AM CDT (4/26)
Length of Visible Light 14h 42m
Length of Day
13h 44m
Full, 99% of the Moon is Illuminated
Apr 26
Full
May 2
Last Quarter
May 9
New
May 17
First Quarter
May 24
Full

Hourly Weather History & Observations

Time (CDT) Temp. Dew Point Humidity Pressure Visibility Wind Dir Wind Speed Gust Speed Precip Events Conditions
12:53 AM 55.9 °F 39.0 °F 53% 30.13 in 10.0 mi South 6.9 mph - N/A   Overcast
1:53 AM 55.4 °F 37.4 °F 51% 30.12 in 10.0 mi South 11.5 mph - N/A   Overcast
2:53 AM 54.0 °F 37.9 °F 55% 30.11 in 10.0 mi SSE 9.2 mph - N/A   Clear
3:53 AM 55.0 °F 37.9 °F 53% 30.09 in 10.0 mi South 11.5 mph - N/A   Overcast
4:53 AM 54.0 °F 37.9 °F 55% 30.09 in 10.0 mi South 10.4 mph - N/A   Clear
5:53 AM 54.0 °F 39.0 °F 57% 30.07 in 10.0 mi SSE 12.7 mph - N/A   Clear
6:53 AM 52.0 °F 41.0 °F 66% 30.09 in 10.0 mi South 11.5 mph - N/A   Clear
7:53 AM 53.1 °F 44.1 °F 71% 30.11 in 10.0 mi SSE 15.0 mph - N/A   Clear
8:53 AM 55.0 °F 44.1 °F 67% 30.12 in 10.0 mi SSE 17.3 mph 26.5 mph N/A   Mostly Cloudy
9:53 AM 59.0 °F 46.0 °F 62% 30.14 in 10.0 mi South 21.9 mph 26.5 mph N/A   Scattered Clouds
10:53 AM 57.9 °F 45.0 °F 62% 30.14 in 10.0 mi South 18.4 mph 26.5 mph N/A   Overcast
11:53 AM 60.1 °F 46.0 °F 60% 30.15 in 10.0 mi South 17.3 mph 27.6 mph N/A   Mostly Cloudy
12:53 PM 61.0 °F 48.0 °F 62% 30.16 in 10.0 mi South 20.7 mph 34.5 mph N/A   Mostly Cloudy
1:08 PM 60.8 °F 48.2 °F 63% 30.16 in 10.0 mi South 17.3 mph 27.6 mph N/A   Mostly Cloudy
1:36 PM 60.8 °F 46.4 °F 59% 30.15 in 10.0 mi South 18.4 mph 26.5 mph N/A   Scattered Clouds
1:53 PM 62.1 °F 48.0 °F 60% 30.13 in 10.0 mi South 19.6 mph 25.3 mph N/A   Partly Cloudy
2:53 PM 60.1 °F 46.9 °F 62% 30.14 in 10.0 mi South 21.9 mph 31.1 mph N/A   Mostly Cloudy
3:53 PM 61.0 °F 46.0 °F 58% 30.15 in 10.0 mi South 16.1 mph 23.0 mph N/A   Overcast
4:02 PM 59.0 °F 44.6 °F 59% 30.15 in 10.0 mi South 18.4 mph 25.3 mph N/A   Mostly Cloudy
4:34 PM 57.2 °F 44.6 °F 63% 30.15 in 10.0 mi South 15.0 mph 24.2 mph N/A   Mostly Cloudy
4:44 PM 57.2 °F 44.6 °F 63% 30.15 in 10.0 mi South 15.0 mph 21.9 mph N/A   Scattered Clouds
4:53 PM 57.9 °F 46.0 °F 65% 30.16 in 10.0 mi South 13.8 mph 23.0 mph N/A   Mostly Cloudy
5:00 PM 57.2 °F 46.4 °F 67% 30.16 in 10.0 mi South 13.8 mph - N/A   Scattered Clouds
5:09 PM 57.2 °F 46.4 °F 67% 30.15 in 10.0 mi South 9.2 mph - N/A   Mostly Cloudy
5:18 PM 59.0 °F 46.4 °F 63% 30.15 in 10.0 mi South 10.4 mph 17.3 mph N/A   Scattered Clouds
5:51 PM 55.4 °F 46.4 °F 72% 30.17 in 10.0 mi South 12.7 mph 21.9 mph N/A   Mostly Cloudy
5:53 PM 55.9 °F 46.0 °F 69% 30.17 in 10.0 mi South 15.0 mph 21.9 mph N/A   Mostly Cloudy
6:53 PM 54.0 °F 46.0 °F 75% 30.19 in 10.0 mi South 11.5 mph - N/A   Overcast
7:53 PM 54.0 °F 46.0 °F 75% 30.18 in 10.0 mi South 4.6 mph - N/A   Overcast
8:53 PM 54.0 °F 46.0 °F 75% 30.19 in 10.0 mi South 9.2 mph - N/A   Overcast
9:53 PM 53.1 °F 46.0 °F 77% 30.20 in 10.0 mi South 6.9 mph - N/A   Overcast
10:53 PM 53.1 °F 46.9 °F 80% 30.21 in 10.0 mi SSE 3.5 mph - N/A   Overcast
11:39 PM 51.8 °F 46.4 °F 82% 30.21 in 10.0 mi SE 5.8 mph - N/A   Overcast
11:53 PM 52.0 °F 46.9 °F 83% 30.20 in 10.0 mi SE 4.6 mph - N/A   Overcast